SCP
0 0 0 0 0 0 0 0 0 0 0 0 0 0 0 0 0 0 0 0 0 0 0 0 0 0 0 0 0 0 0 0 0 0 0 0 0 0 1 1 1 0 1
0 0 0 0 0 0 0 0 0 0 0 0 0 0 0 0 0 0 0 0 0 0 0 0 0 0 0 0 0 0 0 0 0 0 0 0 0 0 0 1 1 1 1
0 0 0 0 0 0 0 0 0 0 0 0 0 0 0 0 0 0 0 0 0 0 0 0 0 0 0 0 0 0 0 0 0 0 0 0 0 0 0 0 1 1 1
0 0 0 0 0 0 0 0 0 0 0 0 0 0 0 0 0 0 0 0 0 0 0 0 0 0 0 0 0 0 0 0 0 0 0 0 0 0 0 0 0 1 1
0 0 0 0 0 0 0 0 0 0 0 0 0 0 0 0 0 0 0 0 0 0 0 0 0 0 0 0 0 0 0 0 0 0 0 0 0 0 0 0 0 0 0
0 0 0 0 0 0 0 0 0 0 0 0 0 0 0 0 0 0 0 0 0 0 0 0 0 0 0 0 0 0 0 0 0 0 0 0 0 0 0 0 0 0 0
0 0 0 0 0 0 0 0 0 0 0 0 0 0 0 0 0 0 0 0 0 0 0 0 0 0 0 0 0 0 0 0 0 0 0 0 0 0 0 0 0 0 0
0 0 0 0 0 0 0 0 0 0 0 0 0 0 0 0 0 0 0 0 0 0 0 0 0 0 0 0 0 0 0 0 0 0 0 0 0 0 0 0 0 0 0
0 0 0 0 0 0 0 0 0 0 0 0 0 0 0 0 0 0 0 0 0 0 0 0 0 0 0 0 0 0 0 0 0 0 0 0 0 0 0 0 0 0 0
0 0 0 0 0 0 0 0 0 0 0 0 0 0 0 0 0 0 0 0 0 0 0 0 0 0 0 0 0 0 0 0 0 -0 0 0 0 0 0 0 0 0 0
0 0 0 0 0 0 0 0 0 0 0 0 0 0 0 0 0 0 0 0 0 0 0 0 0 0 0 0 0 0 0 0 0 -0 -0 0 0 0 0 0 0 0 0
0 0 0 0 0 0 0 0 0 0 0 0 0 0 0 0 0 0 0 0 0 0 0 0 0 0 0 0 0 0 0 0 0 -0 0 0 0 0 0 0 0 0 0
0 0 0 0 0 0 0 0 0 0 0 0 0 0 0 0 0 0 0 0 0 0 0 0 0 0 0 0 0 0 0 0 0 0 0 0 0 0 0 0 0 0 0
0 0 0 0 0 0 0 0 0 0 0 0 0 0 0 0 0 0 0 0 0 0 0 0 0 0 0 0 0 0 0 0 0 0 0 0 0 0 0 0 0 0 0
0 0 0 0 0 0 0 0 0 0 0 0 0 0 0 0 0 0 0 0 0 0 0 0 0 0 0 0 0 0 0 0 0 0 0 0 0 0 0 0 0 0 0
0 0 0 0 0 0 0 0 0 0 0 0 0 0 0 0 0 0 0 0 0 0 0 0 0 0 0 0 0 0 0 0 0 0 0 0 0 0 0 0 0 0 0
0 0 0 0 0 0 0 0 0 0 0 0 0 0 0 0 0 0 0 0 0 0 0 0 0 0 0 0 0 0 0 0 0 0 0 0 0 0 0 0 0 0 0
0 0 0 0 0 0 0 0 0 0 0 0 0 0 0 0 0 0 0 0 0 0 0 0 0 0 0 0 0 0 0 0 0 0 0 0 0 0 0 0 0 0 0
0 0 0 0 0 0 0 0 0 0 0 0 0 0 0 0 0 0 0 0 0 0 0 0 0 0 0 0 0 0 0 0 0 0 0 0 0 0 0 0 0 0 0
0 0 0 0 0 0 0 0 0 0 0 0 0 0 0 0 0 0 0 0 0 0 0 0 0 0 0 0 0 0 0 0 0 0 0 0 0 0 0 0 0 0 0
0 0 0 0 0 0 0 0 0 0 0 0 0 0 0 0 0 0 0 0 0 0 0 0 0 0 0 0 0 0 0 0 0 0 0 0 0 0 0 0 0 0 0
0 0 0 0 0 0 0 0 0 0 0 0 0 0 0 0 0 0 0 0 0 0 0 0 0 0 0 0 0 0 0 0 0 0 0 0 0 0 0 0 0 0 0
0 0 0 0 0 0 0 0 0 0 0 0 0 0 0 0 0 0 0 0 0 0 0 0 0 0 0 0 0 0 0 0 0 0 0 0 0 0 0 0 0 0 0
0 0 0 0 0 0 0 0 0 0 0 0 0 0 0 0 0 0 0 0 0 0 0 0 0 0 0 0 0 0 0 0 0 0 0 0 0 0 0 0 0 0 0
0 0 0 0 0 0 0 0 0 0 0 0 0 0 0 0 0 0 0 0 0 0 0 0 0 0 0 0 0 0 0 0 0 0 0 0 0 0 0 0 0 0 0
0 0 0 0 0 0 0 0 0 0 0 0 0 0 0 0 0 0 0 0 0 0 0 0 0 0 0 0 0 0 0 0 0 0 0 0 0 0 0 0 0 0 0
Wind_Speed
6 6 16 17 18 19 19 20 21 21 22 22 23 24 24 24 25 25 26 26 26 26 27 27 27 27 27 27 27 27 27 27 27 27 28 27 25 24 21 19 17 10 14
5 8 16 16 17 18 19 19 20 20 21 22 22 23 23 23 24 24 24 25 25 25 26 26 26 27 27 27 27 27 27 27 27 28 28 23 23 25 24 23 22 13 17
6 9 12 15 16 17 18 19 19 20 21 21 22 22 23 23 23 23 23 23 24 24 24 25 25 26 26 26 27 27 27 27 27 28 25 13 15 23 24 24 24 23 21
8 8 10 14 15 17 17 18 19 19 20 21 21 22 22 22 22 22 22 23 23 23 23 23 24 24 25 26 26 27 27 26 27 26 15 14 12 21 23 23 24 24 23
7 7 9 13 14 16 17 17 18 19 19 20 21 21 22 22 22 23 23 23 23 23 23 23 23 23 24 24 25 26 26 27 27 20 13 13 10 19 22 22 23 24 24
7 6 7 12 13 14 15 16 17 18 19 20 20 21 22 22 22 22 22 23 24 24 24 24 24 24 24 24 24 25 25 25 23 12 11 12 10 19 22 21 22 23 24
6 5 6 10 11 12 13 16 17 18 19 19 20 21 22 22 22 22 22 23 24 24 25 25 25 25 24 25 25 24 24 24 16 13 12 11 12 22 21 21 22 23 24
5 5 4 8 10 10 11 13 15 16 17 18 19 21 22 21 22 22 22 23 24 24 25 25 25 25 25 25 25 24 23 22 17 15 13 10 17 22 21 21 22 23 23
5 5 4 5 7 10 11 11 13 14 16 18 19 20 21 22 23 23 23 24 25 25 25 26 26 26 27 26 25 24 24 24 14 10 13 10 20 23 22 22 23 23 23
5 5 4 5 5 5 6 10 12 14 15 17 18 20 21 20 21 22 22 24 25 26 27 26 26 28 28 26 25 25 25 20 9 10 8 12 24 25 24 23 24 24 24
6 5 5 5 5 5 5 9 9 11 13 14 13 18 16 8 8 11 18 24 25 26 26 26 27 28 27 24 26 27 21 7 10 8 8 19 25 25 25 25 25 25 24
6 5 5 4 4 5 5 5 3 4 5 6 5 7 5 6 7 12 19 22 24 25 24 25 27 24 19 11 16 21 8 10 9 8 11 25 27 27 27 27 26 26 25
6 5 5 3 3 4 3 3 2 2 3 4 5 6 5 5 5 6 5 9 10 15 10 14 13 9 10 10 10 10 10 9 7 8 11 27 29 29 29 29 28 27 26
6 5 4 2 3 3 2 3 3 2 2 3 3 4 4 3 4 5 4 5 5 5 6 6 6 9 10 11 12 12 12 9 9 9 11 28 30 30 30 30 29 28 27
7 6 4 2 3 2 1 2 3 2 2 3 3 3 4 3 4 5 5 5 6 5 6 7 7 9 9 10 10 13 13 13 13 13 11 26 31 32 32 31 31 30 28
7 6 4 2 2 1 1 2 2 2 3 3 3 3 4 3 4 5 5 5 5 5 5 6 8 8 8 8 9 11 13 13 12 13 13 17 28 32 33 32 31 30 29
8 7 6 2 1 1 2 2 2 2 2 2 2 3 4 4 5 5 5 5 5 5 7 6 8 7 8 9 10 11 11 11 13 14 15 14 15 25 32 32 32 30 28
8 7 5 2 0 1 2 3 3 2 2 2 2 2 3 4 5 4 4 5 6 5 5 6 6 6 7 7 8 9 10 10 13 14 15 16 14 15 21 31 32 30 28
8 8 6 4 2 1 2 3 2 2 2 2 2 2 3 4 4 4 4 5 6 5 5 8 7 6 8 8 9 9 8 9 11 16 17 18 17 17 15 22 30 28 27
8 8 6 5 3 1 1 2 2 2 2 2 2 2 3 3 4 4 4 5 6 5 5 6 8 8 7 8 12 12 9 10 10 12 15 14 16 19 16 15 13 15 22
9 8 6 4 3 1 0 1 2 2 3 3 3 3 3 4 4 5 5 5 5 5 7 8 7 9 8 7 9 11 10 9 11 11 10 11 16 18 17 15 9 6 6
10 9 7 6 3 2 1 1 2 3 3 4 3 2 3 4 5 6 5 5 5 6 7 7 7 7 9 7 8 12 12 11 8 11 10 13 14 14 16 17 13 10 7
10 10 8 6 4 3 1 1 3 3 3 3 3 3 4 5 5 5 6 5 6 6 6 7 7 9 10 9 5 6 10 13 14 10 10 11 11 12 13 13 14 11 10
9 9 8 6 4 3 2 2 2 3 3 4 3 3 5 5 5 6 6 6 6 6 7 8 8 7 10 11 9 6 7 10 12 14 9 7 11 13 12 13 13 11 10
10 9 8 7 5 4 3 3 3 4 3 3 4 5 5 4 5 6 6 5 6 6 7 8 8 8 8 9 9 10 10 9 9 10 14 13 11 9 10 12 11 11 11
10 9 7 7 6 5 5 4 4 4 4 5 5 5 4 4 4 6 6 5 6 6 7 7 8 9 9 9 8 8 10 10 10 9 11 13 13 12 11 11 11 11 10
Wind_Direction
23 22 17 13 15 18 20 21 23 24 23 23 22 21 21 19 17 16 14 12 11 9 8 7 5 3 2 1 359 356 353 352 351 349 342 336 338 340 342 345 344 334 334
33 28 21 15 18 21 22 23 23 24 22 21 20 19 18 17 15 14 12 10 8 7 5 4 2 0 359 358 356 353 351 350 349 347 338 337 344 340 346 348 345 339 334
51 41 23 18 22 24 24 24 23 22 20 18 17 15 14 13 12 11 10 8 6 4 3 1 359 357 355 354 352 350 348 347 347 343 338 340 341 336 339 343 343 342 339
62 53 27 24 27 27 26 24 22 19 18 16 14 12 10 9 8 7 7 6 4 1 360 358 356 353 351 350 347 345 344 343 344 342 340 335 335 328 331 338 338 338 338
73 69 34 30 30 29 26 23 21 17 15 13 11 9 7 6 5 4 5 4 1 358 357 355 353 350 349 346 343 341 339 338 339 340 330 325 324 322 325 331 333 333 333
77 77 50 35 32 29 26 22 19 16 12 10 9 8 5 3 3 3 2 1 358 355 354 352 350 347 346 343 340 337 334 333 336 330 323 317 318 315 318 324 329 329 329
83 82 70 43 33 26 23 20 16 13 9 7 7 6 3 1 1 360 360 358 355 352 351 349 347 345 343 340 337 334 331 330 329 325 315 309 310 311 314 320 324 324 323
85 73 64 43 31 22 21 18 10 8 6 4 5 4 1 360 359 358 359 356 352 350 349 347 344 343 341 338 335 332 331 330 325 314 306 302 308 310 312 317 319 318 318
89 74 56 50 29 12 11 15 3 4 4 2 4 4 1 0 358 356 357 352 350 349 348 345 343 343 339 337 335 334 333 329 325 305 307 314 308 306 309 313 313 312 312
110 89 53 46 37 16 358 0 360 2 3 2 3 2 2 359 356 352 352 348 347 347 345 343 343 341 339 339 337 335 333 331 317 317 317 307 303 303 305 307 308 308 307
117 99 76 46 28 12 353 0 358 358 1 1 360 359 359 352 348 346 344 345 345 345 343 341 342 340 341 338 334 332 334 323 318 312 304 299 300 302 304 304 304 304 303
109 90 80 58 28 18 0 352 342 354 360 351 358 356 348 350 340 346 342 340 342 340 340 338 337 341 339 330 329 331 322 314 313 307 305 305 305 303 301 300 299 298 298
109 94 90 82 50 35 354 343 335 336 356 343 353 350 351 349 337 340 336 333 335 334 335 331 333 333 327 325 322 319 316 316 312 308 307 305 301 299 297 296 295 294 293
118 111 94 88 79 51 3 327 317 341 352 330 338 345 356 339 335 336 329 326 329 325 327 329 329 324 321 321 319 316 316 318 314 309 301 302 301 299 296 294 292 290 288
135 125 116 117 85 54 334 310 338 333 336 315 327 348 356 344 337 333 328 325 323 324 329 330 321 319 319 317 315 317 317 314 309 305 304 303 301 298 295 292 289 287 284
142 133 115 87 70 20 350 340 314 319 309 319 332 346 350 353 339 331 326 321 320 325 326 319 317 317 313 311 313 316 313 309 306 306 305 305 302 297 293 290 287 285 282
143 134 128 145 91 11 358 326 303 284 306 313 324 343 353 359 336 332 319 317 318 319 318 314 310 307 311 316 315 311 307 305 304 303 302 298 296 294 291 288 285 282 278
143 141 137 162 73 5 338 295 276 282 311 303 330 341 352 346 333 328 316 312 311 315 313 309 304 314 312 308 306 304 303 301 301 303 301 298 294 289 287 285 283 281 278
153 146 150 151 190 280 298 286 300 311 319 320 333 331 331 330 328 324 311 302 312 312 306 310 320 310 306 306 303 299 301 304 302 301 300 298 294 286 277 276 275 276 275
148 140 152 163 179 180 293 320 317 322 322 308 300 297 318 321 321 317 298 303 309 305 304 306 306 303 301 302 306 306 298 295 298 296 297 304 308 302 292 278 271 274 276
150 154 162 168 168 155 147 330 312 312 302 293 280 294 317 316 311 301 298 299 300 300 299 301 304 305 304 300 305 305 298 290 291 294 297 309 306 307 307 302 293 286 284
165 165 165 167 160 168 152 253 257 268 269 269 272 311 313 304 297 301 297 295 295 297 298 300 303 302 304 307 306 309 307 305 294 301 302 298 301 306 308 309 310 303 293
171 166 164 147 165 189 170 246 282 289 291 304 327 318 298 294 292 292 291 290 292 294 295 298 298 302 306 304 289 295 304 305 309 297 291 293 297 299 298 297 295 289 285
164 144 142 150 182 191 188 237 279 287 289 293 292 282 289 294 299 297 293 293 294 293 293 297 308 300 301 305 303 282 274 286 298 305 302 291 296 298 302 304 305 301 291
147 141 146 158 189 190 196 232 254 269 278 287 292 291 296 297 296 294 293 298 296 294 293 297 303 300 299 298 305 304 298 291 281 287 299 304 302 297 299 301 298 294 289
138 141 151 172 193 188 203 228 242 264 283 294 297 299 298 293 291 294 300 300 297 294 293 298 301 301 300 298 302 303 302 299 295 289 289 295 298 298 296 293 290 286 281